Wallops Island, VA

8:44 PM EDT on May 25, 2017 (GMT -0400)
Wallops Flight Facility

Weather History for KWAL - March, 2014

Change the Weather History Date:

Saturday, March 29, 2014

  Actual Average Record
Temperature  
Mean Temperature 57 °F 49 °F  
Max Temperature 62 °F 58 °F 84 °F (1989)
Min Temperature 51 °F 40 °F 26 °F (2015)
Degree Days  
Heating Degree Days 8    
Month to date heating degree days 638  
Since 1 July heating degree days 3631  
Cooling Degree Days 0    
Month to date cooling degree days 0  
Year to date cooling degree days 0  
Growing Degree Days 6 (Base 50)    
Moisture  
Dew Point 54 °F    
Average Humidity 91    
Maximum Humidity 96    
Minimum Humidity 86    
Precipitation  
Precipitation 0.97 in 0.13 in 1.39 in (2003)
Month to date precipitation 3.12 3.74  
Year to date precipitation 8.69 9.54  
Sea Level Pressure  
Sea Level Pressure 29.91 in    
Wind  
Wind Speed 11 mph (SSW)    
Max Wind Speed 23 mph    
Max Gust Speed 31 mph    
Visibility 3 miles    
Events Fog , Rain    
T = Trace of Precipitation, MM = Missing Value Source: NWS Daily Summary

Daily Weather History Graph

Daily Weather History Graph

Search for Another Location

Airport or City:

Trip Planner

Search our weather history database for the weather conditions in past years. The results will help you decide how hot, cold, wet, or windy it might be!

Date:

Astronomy

Mar. 29, 2014 Rise Set
Actual Time 6:51 AM EDT 7:22 PM EDT
Civil Twilight 6:25 AM EDT 7:48 PM EDT
Nautical Twilight 5:54 AM EDT 8:19 PM EDT
Astronomical Twilight 5:22 AM EDT 8:51 PM EDT
Moon 5:57 AM EDT (3/29) 6:25 PM EDT (3/29)
Length of Visible Light 13h 23m
Length of Day
12h 30m
Waning Crescent, 2% of the Moon is Illuminated
Mar 29
Waning Crescent
Mar 30
New
Apr 7
First Quarter
Apr 15
Full
Apr 22
Last Quarter

Hourly Weather History & Observations

Time (EDT) Temp. Dew Point Humidity Pressure Visibility Wind Dir Wind Speed Gust Speed Precip Events Conditions
12:54 AM 54.0 °F 51.1 °F 90% 30.14 in 7.0 mi South 3.5 mph - 0.01 in   Overcast
1:54 AM 55.0 °F 52.0 °F 89% 30.14 in 7.0 mi South 3.5 mph - 0.00 in Rain Light Rain
2:54 AM 54.0 °F 52.0 °F 93% 30.13 in 4.0 mi SSW 4.6 mph - 0.05 in Rain Light Rain
3:54 AM 53.1 °F 52.0 °F 96% 30.11 in 4.0 mi South 4.6 mph - 0.03 in Rain Light Rain
4:07 AM 53.1 °F 51.1 °F 93% 30.11 in 2.0 mi South 3.5 mph - 0.05 in Rain Heavy Rain
4:11 AM 53.1 °F 52.0 °F 96% 30.11 in 2.0 mi SSW 4.6 mph - 0.08 in Rain Heavy Rain
4:15 AM 54.0 °F 52.0 °F 93% 30.11 in 2.5 mi South 4.6 mph - 0.09 in Rain Rain
4:25 AM 52.0 °F 50.0 °F 93% 30.11 in 3.0 mi South 5.8 mph - 0.11 in Rain Rain
4:29 AM 51.1 °F 50.0 °F 96% 30.11 in 3.0 mi SSW 5.8 mph - 0.12 in Rain Rain
4:54 AM 54.0 °F 52.0 °F 93% 30.10 in 5.0 mi SW 10.4 mph - 0.15 in Rain Light Rain
5:54 AM 55.0 °F 53.1 °F 93% 30.10 in 6.0 mi SSW 9.2 mph - 0.05 in Rain Light Rain
6:12 AM 53.1 °F 51.1 °F 93% 30.10 in 5.0 mi SSW 4.6 mph - 0.03 in Rain Light Rain
6:54 AM 53.1 °F 52.0 °F 96% 30.09 in 3.0 mi SW 6.9 mph - 0.15 in Rain Rain
7:22 AM 55.9 °F 55.0 °F 97% 30.10 in 2.0 mi SSW 9.2 mph - 0.10 in Rain Rain
7:29 AM 57.0 °F 55.0 °F 93% 30.10 in 3.0 mi SW 10.4 mph - 0.11 in Rain Rain
7:54 AM 57.9 °F 55.9 °F 93% 30.09 in 3.0 mi SSW 8.1 mph - 0.16 in Rain Rain
8:05 AM 57.0 °F 55.9 °F 96% 30.10 in 4.0 mi South 9.2 mph - 0.02 in Rain Rain
8:14 AM 55.9 °F 55.0 °F 97% 30.10 in 2.5 mi South 8.1 mph - 0.04 in Rain Rain
8:20 AM 55.9 °F 54.0 °F 93% 30.09 in 1.8 mi South 6.9 mph - 0.06 in Rain Rain
8:33 AM 55.9 °F 54.0 °F 93% 30.09 in 1.2 mi SSE 8.1 mph - 0.09 in Rain Light Rain
8:37 AM 55.0 °F 54.0 °F 96% 30.09 in 0.8 mi South 10.4 mph - 0.10 in Rain Light Rain
8:47 AM 52.0 °F 50.0 °F 93% 30.09 in 0.8 mi South 9.2 mph - 0.11 in Rain Light Rain
8:54 AM 52.0 °F 50.0 °F 93% 30.08 in 0.8 mi SSE 6.9 mph - 0.11 in Rain Light Rain
9:01 AM 52.0 °F 51.1 °F 97% 30.08 in 0.5 mi SSE 8.1 mph - 0.01 in Fog , Rain Light Rain
9:54 AM 55.0 °F 54.0 °F 96% 30.07 in 0.5 mi South 4.6 mph - 0.03 in Fog , Rain Light Rain
10:03 AM 55.9 °F 54.0 °F 93% 30.08 in 0.8 mi SSW 11.5 mph - 0.00 in Rain Light Rain
10:11 AM 55.9 °F 55.0 °F 97% 30.07 in 0.5 mi SSW 10.4 mph - 0.01 in Fog , Rain Light Rain
10:19 AM 57.9 °F 55.9 °F 93% 30.07 in 0.8 mi SSW 10.4 mph - 0.01 in Rain Light Rain
10:29 AM 57.9 °F 57.0 °F 97% 30.06 in 1.2 mi SSW 10.4 mph - 0.01 in Rain Light Rain
10:49 AM 57.2 °F 55.4 °F 94% 30.06 in 2.5 mi SSW 10.4 mph - 0.01 in Rain Light Rain
10:54 AM 57.9 °F 55.9 °F 93% 30.04 in 4.0 mi South 9.2 mph - 0.01 in   Overcast
10:57 AM 57.9 °F 57.0 °F 97% 30.05 in 2.0 mi SSW 8.1 mph - N/A   Overcast
11:02 AM 57.0 °F 55.9 °F 96% 30.05 in 1.0 mi SSW 10.4 mph - N/A   Mist
11:11 AM 57.0 °F 55.9 °F 96% 30.04 in 2.0 mi SSW 10.4 mph - N/A   Overcast
11:18 AM 57.0 °F 55.0 °F 93% 30.04 in 3.0 mi SSW 12.7 mph - N/A   Overcast
11:54 AM 59.0 °F 57.0 °F 93% 30.01 in 10.0 mi SSW 11.5 mph - N/A   Mostly Cloudy
12:06 PM 57.9 °F 55.9 °F 93% 30.02 in 10.0 mi SSW 10.4 mph - N/A   Mostly Cloudy
12:21 PM 57.9 °F 55.0 °F 90% 30.01 in 10.0 mi SSW 13.8 mph - N/A   Overcast
12:54 PM 57.0 °F 54.0 °F 89% 29.99 in 10.0 mi SSW 16.1 mph - N/A   Overcast
1:05 PM 57.9 °F 54.0 °F 87% 29.99 in 9.0 mi SSW 13.8 mph 23.0 mph 0.00 in Rain Light Rain
1:43 PM 57.9 °F 54.0 °F 87% 29.96 in 10.0 mi SSW 11.5 mph - 0.00 in   Overcast
1:54 PM 59.0 °F 55.0 °F 87% 29.94 in 10.0 mi SSW 10.4 mph - 0.00 in   Overcast
2:15 PM 59.0 °F 55.0 °F 87% 29.93 in 10.0 mi SSW 11.5 mph - N/A   Mostly Cloudy
2:54 PM 61.0 °F 57.0 °F 87% 29.89 in 10.0 mi South 10.4 mph - N/A   Overcast
3:10 PM 61.0 °F 57.0 °F 87% 29.89 in 10.0 mi South 12.7 mph 19.6 mph N/A   Overcast
3:47 PM 57.9 °F 55.0 °F 90% 29.87 in 10.0 mi South 9.2 mph - 0.00 in Rain Light Rain
3:54 PM 57.9 °F 55.0 °F 90% 29.86 in 10.0 mi South 11.5 mph 19.6 mph 0.00 in   Overcast
4:43 PM 57.0 °F 55.0 °F 93% 29.83 in 2.0 mi South 12.7 mph - 0.01 in   Overcast
4:52 PM 57.2 °F 55.4 °F 94% 29.83 in 3.0 mi South 16.1 mph 24.2 mph 0.01 in   Overcast
4:54 PM 57.9 °F 55.9 °F 93% 29.82 in 4.0 mi South 16.1 mph 24.2 mph 0.01 in   Overcast
5:06 PM 57.9 °F 55.9 °F 93% 29.82 in 2.0 mi South 15.0 mph - 0.00 in Rain Light Rain
5:13 PM 57.0 °F 55.0 °F 93% 29.82 in 1.2 mi South 15.0 mph 21.9 mph 0.02 in Rain Rain
5:25 PM 55.9 °F 54.0 °F 93% 29.80 in 2.5 mi South 13.8 mph 21.9 mph 0.07 in Rain Rain
5:33 PM 57.0 °F 55.0 °F 93% 29.80 in 5.0 mi South 12.7 mph - 0.08 in Rain Light Rain
5:41 PM 55.9 °F 55.0 °F 97% 29.80 in 2.0 mi South 13.8 mph 28.8 mph 0.09 in Rain Light Rain
5:54 PM 55.9 °F 54.0 °F 93% 29.79 in 1.2 mi South 12.7 mph 24.2 mph 0.10 in Rain Light Rain
6:04 PM 55.0 °F 53.1 °F 93% 29.79 in 0.8 mi South 12.7 mph - 0.00 in   Mist
6:15 PM 55.0 °F 54.0 °F 96% 29.78 in 0.5 mi South 15.0 mph 21.9 mph 0.01 in Fog , Rain Rain
6:24 PM 55.9 °F 54.0 °F 93% 29.78 in 1.0 mi South 17.3 mph 24.2 mph 0.03 in Rain Rain
6:31 PM 55.9 °F 54.0 °F 93% 29.78 in 2.0 mi SSW 16.1 mph 24.2 mph 0.06 in Rain Light Rain
6:45 PM 55.9 °F 55.0 °F 97% 29.77 in 1.2 mi SSW 17.3 mph - 0.07 in Rain Light Rain
6:54 PM 55.9 °F 54.0 °F 93% 29.76 in 1.0 mi South 15.0 mph - 0.07 in   Mist
7:03 PM 55.9 °F 54.0 °F 93% 29.76 in 0.5 mi South 15.0 mph 23.0 mph N/A Fog Fog
7:19 PM 55.9 °F 55.0 °F 97% 29.76 in 0.8 mi SSW 19.6 mph 25.3 mph N/A   Mist
7:27 PM 55.9 °F 55.0 °F 97% 29.75 in 1.0 mi South 17.3 mph 25.3 mph N/A   Mist
7:41 PM 55.9 °F 54.0 °F 93% 29.73 in 0.8 mi South 17.3 mph 28.8 mph N/A   Mist
7:54 PM 55.0 °F 54.0 °F 96% 29.72 in 0.8 mi South 16.1 mph 24.2 mph 0.00 in Rain Light Rain
8:02 PM 55.0 °F 54.0 °F 96% 29.73 in 1.0 mi SSW 16.1 mph 24.2 mph 0.00 in Rain Light Rain
8:19 PM 55.9 °F 55.0 °F 97% 29.71 in 2.0 mi South 12.7 mph 20.7 mph 0.04 in Rain Light Rain
8:22 PM 57.0 °F 55.0 °F 93% 29.71 in 3.0 mi South 11.5 mph - 0.04 in Rain Light Rain
8:32 PM 57.0 °F 55.9 °F 96% 29.70 in 2.0 mi South 12.7 mph 23.0 mph 0.05 in   Overcast
8:40 PM 55.9 °F 55.0 °F 97% 29.70 in 1.2 mi South 13.8 mph 20.7 mph 0.05 in   Overcast
8:47 PM 55.9 °F 54.0 °F 93% 29.69 in 1.0 mi South 15.0 mph - 0.05 in   Mist
8:54 PM 55.9 °F 55.0 °F 97% 29.68 in 1.8 mi South 17.3 mph 24.2 mph 0.05 in Rain Light Rain
9:04 PM 55.9 °F 54.0 °F 93% 29.67 in 2.0 mi South 17.3 mph 27.6 mph 0.00 in Rain Light Rain
9:11 PM 55.9 °F 54.0 °F 93% 29.67 in 3.0 mi South 19.6 mph 28.8 mph 0.00 in Rain Light Rain
9:34 PM 55.9 °F 54.0 °F 93% 29.66 in 2.0 mi South 18.4 mph 27.6 mph 0.00 in   Overcast
9:41 PM 55.9 °F 54.0 °F 93% 29.66 in 1.0 mi South 19.6 mph 27.6 mph 0.00 in   Mist
9:50 PM 55.4 °F 55.4 °F 100% 29.66 in 0.8 mi SSW 21.9 mph 28.8 mph 0.00 in   Mist
9:54 PM 55.9 °F 55.0 °F 97% 29.65 in 0.5 mi SSW 20.7 mph 28.8 mph 0.00 in Fog Fog
10:24 PM 55.0 °F 54.0 °F 96% 29.65 in 1.0 mi SSW 16.1 mph 26.5 mph N/A   Mist
10:41 PM 55.0 °F 54.0 °F 96% 29.64 in 0.8 mi SSW 18.4 mph - N/A   Mist
10:49 PM 55.4 °F 53.6 °F 94% 29.64 in 0.5 mi SSW 18.4 mph 27.6 mph N/A Fog Fog
10:54 PM 55.9 °F 54.0 °F 93% 29.63 in 0.5 mi SSW 19.6 mph 28.8 mph N/A Fog Fog
11:07 PM 55.0 °F 54.0 °F 96% 29.64 in 0.8 mi SW 12.7 mph - N/A   Mist
11:21 PM 55.0 °F 53.1 °F 93% 29.63 in 0.5 mi SSW 17.3 mph - N/A Fog Fog
11:54 PM 54.0 °F 52.0 °F 93% 29.61 in 0.5 mi SSW 12.7 mph - N/A Fog Fog